DECAYED

STARLINK-31145, 58768 (Decayed)

Orbit data source: Space-Track

STARLINK-31145, 58768 was a payload satellite owned by SpaceX/Seattle (US) in LEO that was launched on Sun, 14 Jan 2024 UTC via an FALCON 9 launch vehicle from the Air Force Western Test Range (AFWTR). Payload-class satellites include a variety of spacecraft equipped with specific instruments for various scientific and technological missions. These include communications satellites like Starlink; space stations such as the ISS; scientific satellites like the Hubble; Earth observation satellites from companies like Planet Labs, Umbra, and HawkEye 360; GPS; miniature CubeSats for education and research; and military/defense satellites.

Not visible in the next 10 days
Identifier
58768, 2024-011D
Orbit
Decayed
Country
Flag of USUS
Related business
Manufacturer
SpaceX/Seattle
Mission
Decayed Commercial Communications
Bus & Motor
STARLINK V2M, Unknown motor
Mass
730 kg wet, ~700 kg dry
Launch date (UTC)
2024-01-14 (2 years ago)
Launch vehicle
FALCON 9
Launch site
Air Force Western Test Range (AFWTR)
Object type
Payload
Rocket body
Debris
Shape & HBR
Box + 2 Pan, 17.7 m
Radar Cross Section
33.884 m², Large (>1 m²)

Expand to show TLE details & history
Last TLE update: 3 months ago

TLE from 3 months ago
0 STARLINK-31145
1 58768U 24011D   26076.41623260  .13387143  11853-4  40492-2 0  9990
2 58768  53.1138 322.0630 0008986 215.1655 144.8795 16.26066646121666
Epoch: 2026-03-17T09:59Z
TLE epoch observation values (Epoch: 2026-03-17T09:59:22.496Z)
Latitude
0.00002°
Longitude
-2.77539°
Altitude
208.902 km
Speed
7.78 km/s
True Right ascension
21h 28m 15s
True Declination
0° 00' 00"
Sunlit
Object was in daylight at epoch
Visualization orbit readout
Latitude
Unknown
Longitude
Unknown
Altitude
Unknown
Speed
Unknown
Apparent Right ascension
Unknown
Apparent Declination
Unknown
Sunlit
N/A
Visualization observer readout
Local Sidereal Time
21:25:10
Azimuth
Unknown
Elevation
Unknown
Doppler factor
Unknown
Orbital elements
Apogee altitude
209.32 km
Perigee altitude
197.492 km
Semi-major axis
6,581.543 km
Eccentricity
0.0009
Inclination
53.1138°
RAAN
322.063°
Arg. of periapsis
215.1655°
True anomaly
144.93869°
Mean anomaly
144.8795°
Eccentric anomaly
144.9091°
Mean motion
4.06492 °/min
Orbital period
88.56 mins
BSTAR
0.0040492
Loading maneuver chart data...
Computing Atmospheric mass density...
Loading historical data...
Loading historical data...
Loading historical data...
Loading historical data...
Loading historical data...
Loading historical data...
Loading historical data...

Documentation

Showing up to 5 results
|